DW9313 Weather Reports


time (UTC)temp
C
wind
direction
speed
KPH
gust
KPH
rain 1hr
cm
rain 24hr
cm
rain mn
cm
humidity
%
barometer
mb
20260901075238 15 297 1.6 9.7 0.00 0.00 0.00 90 1017.9
20260901074237 15 290 3.2 8.0 0.00 0.00 0.00 90 1018.1
20260901073737 15 289 0.0 3.2 0.00 0.00 0.00 91 1018.1
20260901073237 15 284 0.0 3.2 0.00 0.00 0.00 91 1018.0
20260901072238 15 275 0.0 1.6 0.00 0.00 0.00 90 1017.9
20260901071737 15 138 0.0 0.0 0.00 0.00 0.00 91 1017.9
20260901071238 15 141 0.0 1.6 0.00 0.00 0.00 91 1018.0
20260901070738 14 109 0.0 0.0 0.00 0.00 0.00 92 1018.0
20260901065737 13 107 0.0 0.0 0.00 0.00 0.00 92 1017.9
20260901065238 13 107 0.0 0.0 0.00 0.00 0.00 92 1017.9
20260901064737 13 145 0.0 1.6 0.00 0.00 0.00 92 1017.9
20260901064239 13 112 0.0 0.0 0.00 0.00 0.00 92 1017.9
20260901063737 13 112 0.0 1.6 0.00 0.00 0.00 91 1018.0
20260901063238 13 127 0.0 0.0 0.00 0.00 0.00 92 1017.9
20260901062237 13 133 0.0 1.6 0.00 0.00 0.00 92 1018.0
20260901061738 13 24 0.0 1.6 0.00 0.00 0.00 91 1018.0
20260901061237 13 6 0.0 1.6 0.00 0.00 0.00 91 1018.0
20260901060738 13 6 0.0 1.6 0.00 0.00 0.00 91 1018.0
20260901060238 13 323 0.0 1.6 0.00 0.00 0.00 91 1018.0
20260901054740 13 311 0.0 3.2 0.00 0.00 0.00 91 1017.9
20260901054238 13 307 0.0 3.2 0.00 0.00 0.00 91 1017.9
20260901053739 13 307 0.0 1.6 0.00 0.00 0.00 91 1017.9
20260901053238 13 306 0.0 3.2 0.00 0.00 0.00 91 1017.8
20260901052238 13 285 0.0 1.6 0.00 0.00 0.00 91 1017.7
20260901051739 13 299 1.6 3.2 0.00 0.00 0.00 91 1017.7
20260901051239 13 297 1.6 3.2 0.00 0.00 0.00 91 1017.6
20260901050740 13 299 0.0 3.2 0.00 0.00 0.00 91 1017.7
20260901050239 13 297 0.0 3.2 0.00 0.00 0.00 91 1017.7
20260901045738 13 287 1.6 3.2 0.00 0.00 0.00 92 1017.8
20260901045238 13 326 0.0 3.2 0.00 0.00 0.00 92 1017.7
20260901044739 13 286 0.0 1.6 0.00 0.00 0.00 91 1017.7
20260901044238 12 285 0.0 3.2 0.00 0.00 0.00 91 1017.7
20260901043739 12 276 0.0 3.2 0.00 0.00 0.00 91 1017.7
20260901042739 13 285 0.0 1.6 0.00 0.00 0.00 90 1017.7
20260901042240 13 287 0.0 1.6 0.00 0.00 0.00 91 1017.7
20260901041740 13 311 0.0 0.0 0.00 0.00 0.00 90 1017.7
20260901041239 13 311 0.0 0.0 0.00 0.00 0.00 90 1017.7
20260901040740 13 311 0.0 0.0 0.00 0.00 0.00 90 1017.7
20260901035747 13 294 0.0 1.6 0.00 0.00 0.00 89 1017.6
20260901034745 13 287 0.0 1.6 0.00 0.00 0.00 90 1017.6
20260901034244 13 291 0.0 0.0 0.00 0.00 0.00 89 1017.6
20260901033742 13 291 0.0 0.0 0.00 0.00 0.00 89 1017.6
20260901033239 13 291 0.0 0.0 0.00 0.00 0.00 89 1017.7
20260901032739 13 291 0.0 1.6 0.00 0.00 0.00 89 1017.7
20260901032240 13 287 0.0 1.6 0.00 0.00 0.00 90 1017.7
20260901031240 13 320 1.6 4.8 0.00 0.00 0.00 91 1017.7
20260901030740 12 288 0.0 1.6 0.00 0.00 0.00 91 1017.7
20260901030239 12 291 0.0 3.2 0.00 0.00 0.00 91 1017.8
20260901025740 12 138 0.0 1.6 0.00 0.00 0.00 91 1017.7
20260901025240 12 121 0.0 1.6 0.00 0.00 0.00 92 1017.7
20260901024739 12 115 0.0 8.0 0.00 0.00 0.00 92 1017.7
20260901024240 12 106 0.0 0.0 0.00 0.00 0.00 93 1017.8
20260901023741 12 145 0.0 0.0 0.00 0.00 0.00 93 1017.8
20260901023240 12 145 0.0 0.0 0.00 0.00 0.00 92 1017.9
20260901022741 12 145 0.0 0.0 0.00 0.00 0.00 93 1017.9
20260901022240 12 150 0.0 0.0 0.00 0.00 0.00 93 1017.9
20260901021741 12 150 0.0 0.0 0.00 0.00 0.00 93 1017.9
20260901021240 11 149 0.0 0.0 0.00 0.00 0.00 93 1017.8
20260901020740 11 148 0.0 0.0 0.00 0.00 0.00 94 1017.8
20260901020240 11 148 0.0 0.0 0.00 0.00 0.00 93 1017.9
20260901015739 11 148 0.0 0.0 0.00 0.00 0.00 93 1017.9
20260901014739 11 148 0.0 0.0 0.00 0.00 0.00 92 1018.0
20260901014240 11 148 0.0 0.0 0.00 0.00 0.00 92 1018.0
20260901013740 11 69 0.0 0.0 0.00 0.00 0.00 92 1018.0
20260901013240 11 69 0.0 0.0 0.00 0.00 0.00 92 1018.0
20260901012742 11 69 0.0 0.0 0.00 0.00 0.00 91 1018.0
20260901012241 11 69 0.0 0.0 0.00 0.00 0.00 92 1018.0
20260901010740 11 69 0.0 0.0 0.00 0.00 0.00 92 1018.0
20260901005740 11 5 0.0 0.0 0.00 0.00 0.00 91 1018.0
20260901004740 11 102 0.0 0.0 0.00 0.00 0.00 91 1018.0
20260901004241 11 102 0.0 0.0 0.00 0.00 0.00 91 1018.0
20260901003741 11 100 0.0 0.0 0.00 0.00 0.00 91 1018.1
20260901003241 11 99 0.0 0.0 0.00 0.00 0.00 91 1018.1
20260901002742 11 99 0.0 0.0 0.00 0.00 0.00 90 1018.1
20260901002240 11 99 0.0 0.0 0.00 0.00 0.00 90 1018.1
20260901001741 11 99 0.0 0.0 0.00 0.00 0.00 90 1018.1
20260901000741 11 99 0.0 0.0 0.00 0.00 0.00 90 1018.1
20260831235741 11 99 0.0 0.0 0.00 0.00 0.00 90 1018.1
20260831235240 11 99 0.0 0.0 0.00 0.00 0.00 90 1018.1
20260831234241 11 140 0.0 0.0 0.00 0.00 0.00 90 1018.3
20260831233740 11 202 0.0 0.0 0.00 0.00 0.00 90 1018.3
20260831233241 11 142 0.0 0.0 0.00 0.00 0.00 90 1018.3
20260831232741 11 140 0.0 0.0 0.00 0.00 0.00 89 1018.3
20260831232241 11 155 0.0 0.0 0.00 0.00 0.00 89 1018.3
20260831231742 11 180 0.0 0.0 0.00 0.00 0.00 89 1018.3
20260831230805 11 228 0.0 0.0 0.00 0.00 0.00 89 1018.4
20260831225742 11 228 0.0 0.0 0.00 0.00 0.00 88 1018.4
20260831224742 11 228 0.0 0.0 0.00 0.00 0.00 88 1018.4
20260831224241 12 228 0.0 0.0 0.00 0.00 0.00 87 1018.4
20260831223741 12 228 0.0 0.0 0.00 0.00 0.00 87 1018.5
20260831223241 12 228 0.0 0.0 0.00 0.00 0.00 87 1018.5
20260831222743 12 228 0.0 0.0 0.00 0.00 0.00 86 1018.5
20260831221741 12 272 0.0 1.6 0.00 0.00 0.00 85 1018.5
20260831221243 12 272 0.0 0.0 0.00 0.00 0.00 85 1018.4
20260831220742 12 285 0.0 0.0 0.00 0.00 0.00 84 1018.3
20260831220242 13 285 0.0 0.0 0.00 0.00 0.00 84 1018.3
20260831215742 13 285 0.0 0.0 0.00 0.00 0.00 84 1018.4
20260831214742 13 285 0.0 0.0 0.00 0.00 0.00 85 1018.4
20260831214242 13 285 0.0 0.0 0.00 0.00 0.00 85 1018.3
20260831213742 13 285 0.0 0.0 0.00 0.00 0.00 85 1018.2
20260831213242 13 285 0.0 0.0 0.00 0.00 0.00 84 1018.2
20260831212742 13 285 0.0 1.6 0.00 0.00 0.00 84 1018.2
20260831212242 13 285 0.0 1.6 0.00 0.00 0.00 85 1018.1
20260831211742 13 285 0.0 0.0 0.00 0.00 0.00 84 1018.1
20260831211244 13 285 0.0 0.0 0.00 0.00 0.00 84 1018.2
20260831210742 13 284 0.0 0.0 0.00 0.00 0.00 84 1018.1
20260831205742 14 284 0.0 0.0 0.00 0.00 0.00 84 1018.2
20260831205242 14 284 0.0 0.0 0.00 0.00 0.00 83 1018.2
20260831203743 15 298 0.0 1.6 0.00 0.03 0.00 83 1018.1
20260831203242 15 291 0.0 1.6 0.00 0.03 0.00 83 1018.1
20260831202742 15 292 0.0 1.6 0.00 0.03 0.00 83 1018.0
20260831202244 15 292 0.0 0.0 0.00 0.03 0.00 82 1018.0
20260831201742 15 292 0.0 0.0 0.00 0.03 0.00 81 1018.0
20260831201243 15 292 0.0 0.0 0.00 0.03 0.00 81 1018.0
20260831200744 15 292 0.0 0.0 0.00 0.03 0.00 80 1018.0
20260831200243 16 292 0.0 0.0 0.00 0.03 0.00 80 1018.0
20260831195742 16 292 0.0 1.6 0.00 0.03 0.00 80 1017.9
20260831195243 16 292 0.0 1.6 0.00 0.03 0.00 79 1017.9
20260831194744 16 293 0.0 0.0 0.00 0.03 0.00 79 1017.9
20260831194243 16 293 0.0 0.0 0.00 0.03 0.00 79 1017.8
20260831193745 16 293 0.0 0.0 0.00 0.03 0.00 79 1017.8
20260831192743 16 293 0.0 0.0 0.00 0.05 0.00 78 1017.7
20260831192243 16 293 0.0 0.0 0.00 0.05 0.00 78 1017.7
20260831191743 16 293 0.0 1.6 0.00 0.05 0.00 77 1017.6
20260831190744 17 295 0.0 1.6 0.00 0.05 0.00 77 1017.6
20260831190243 17 289 0.0 0.0 0.00 0.05 0.00 76 1017.5
20260831185743 17 301 0.0 3.2 0.00 0.05 0.00 76 1017.5
20260831184745 17 277 1.6 4.8 0.00 0.05 0.00 75 1017.4
20260831184243 17 290 1.6 4.8 0.00 0.05 0.00 74 1017.4
20260831183743 17 284 3.2 4.8 0.00 0.05 0.00 74 1017.5
20260831183244 17 284 1.6 8.0 0.00 0.05 0.00 73 1017.4
20260831182744 17 277 3.2 9.7 0.00 0.05 0.00 72 1017.4
20260831182243 17 271 4.8 11.3 0.00 0.05 0.00 71 1017.4
20260831180744 18 287 6.4 11.3 0.00 0.05 0.00 68 1017.3
20260831180244 18 287 6.4 11.3 0.00 0.05 0.00 68 1017.2
20260831175745 18 295 8.0 16.1 0.00 0.05 0.00 67 1017.1
20260831175243 19 306 8.0 16.1 0.00 0.05 0.00 67 1017.1
20260831174745 19 286 8.0 11.3 0.00 0.05 0.00 68 1017.0
20260831174243 19 279 8.0 16.1 0.00 0.05 0.00 68 1017.0
20260831173744 19 296 9.7 12.9 0.00 0.05 0.00 68 1017.0
20260831173245 19 304 8.0 12.9 0.00 0.05 0.00 68 1017.0
20260831172744 19 282 3.2 9.7 0.00 0.05 0.00 69 1017.0
20260831172244 18 291 3.2 12.9 0.00 0.05 0.00 70 1017.0
20260831171745 18 286 4.8 9.7 0.00 0.08 0.00 70 1017.0
20260831171244 18 284 4.8 9.7 0.00 0.08 0.00 70 1016.9
20260831170244 18 297 4.8 9.7 0.00 0.08 0.00 69 1016.7
20260831165743 18 285 3.2 9.7 0.00 0.10 0.00 69 1016.8
20260831165245 18 296 3.2 9.7 0.00 0.10 0.00 69 1016.7
20260831164744 18 284 3.2 9.7 0.00 0.10 0.00 69 1016.7
20260831164246 18 282 1.6 11.3 0.00 0.10 0.00 69 1016.7
20260831163244 18 274 4.8 9.7 0.00 0.10 0.00 68 1016.6
20260831162746 18 298 4.8 9.7 0.00 0.10 0.00 68 1016.7
20260831162244 18 297 3.2 9.7 0.00 0.10 0.00 68 1016.6
20260831161746 18 290 4.8 11.3 0.00 0.10 0.00 68 1016.6
20260831161244 18 289 4.8 12.9 0.00 0.10 0.00 67 1016.6
20260831160744 18 303 8.0 14.5 0.00 0.10 0.00 67 1016.6
20260831160244 18 299 1.6 9.7 0.00 0.10 0.00 67 1016.6
20260831155745 18 286 4.8 11.3 0.00 0.13 0.00 67 1016.6
20260831154745 18 291 4.8 12.9 0.00 0.15 0.00 66 1016.6
20260831154245 18 319 6.4 11.3 0.00 0.15 0.00 66 1016.5
20260831153744 18 306 9.7 14.5 0.00 0.15 0.00 66 1016.6
20260831153245 18 291 9.7 16.1 0.00 0.15 0.00 65 1016.6
20260831152746 18 310 6.4 11.3 0.00 0.18 0.00 67 1016.5
20260831151744 18 290 4.8 12.9 0.00 0.18 0.00 67 1016.5
20260831151246 18 284 9.7 19.3 0.00 0.18 0.00 66 1016.4
20260831150744 18 301 9.7 19.3 0.00 0.18 0.00 66 1016.4
20260831150244 18 296 9.7 19.3 0.00 0.18 0.00 67 1016.4
20260831145746 18 282 9.7 19.3 0.00 0.18 0.00 66 1016.4
20260831145246 18 293 8.0 14.5 0.00 0.18 0.00 68 1016.4
20260831144747 18 277 6.4 19.3 0.00 0.18 0.00 69 1016.4
20260831143747 18 291 11.3 19.3 0.00 0.18 0.00 69 1016.5
20260831143245 18 307 12.9 22.5 0.00 0.18 0.00 68 1016.3
20260831142746 18 290 11.3 20.9 0.00 0.18 0.00 68 1016.3
20260831142247 18 302 9.7 22.5 0.00 0.18 0.00 66 1016.2
20260831141745 18 290 9.7 16.1 0.00 0.18 0.00 66 1016.1
20260831141245 18 270 8.0 19.3 0.00 0.18 0.00 66 1016.1
20260831140246 18 307 8.0 16.1 0.00 0.18 0.00 64 1016.0
20260831135247 18 294 4.8 14.5 0.00 0.18 0.00 64 1016.0
20260831134748 18 295 9.7 16.1 0.00 0.18 0.00 63 1016.0
20260831133746 18 298 9.7 14.5 0.00 0.18 0.00 64 1016.0
20260831133246 18 280 8.0 19.3 0.00 0.18 0.00 63 1016.0
20260831132746 18 288 9.7 19.3 0.00 0.18 0.00 66 1015.9
20260831132246 18 298 11.3 24.1 0.00 0.18 0.00 64 1015.9
20260831131747 18 298 9.7 12.9 0.00 0.18 0.00 64 1015.9
20260831131246 18 307 9.7 19.3 0.00 0.18 0.00 65 1015.9
20260831125747 18 309 8.0 14.5 0.00 0.18 0.00 64 1015.8
20260831124246 18 305 9.7 22.5 0.00 0.18 0.00 65 1015.6
20260831123746 18 304 12.9 20.9 0.00 0.18 0.00 65 1015.5
20260831123246 17 282 9.7 27.4 0.00 0.18 0.00 65 1015.5
20260831122747 17 290 9.7 20.9 0.00 0.18 0.00 65 1015.5
20260831122248 17 298 9.7 20.9 0.00 0.18 0.00 67 1015.4
20260831121746 17 308 11.3 20.9 0.00 0.18 0.00 67 1015.4
20260831120747 17 278 16.1 29.0 0.00 0.18 0.00 67 1015.3
20260831120246 17 281 8.0 22.5 0.00 0.18 0.00 69 1015.3
20260831115748 17 304 9.7 24.1 0.00 0.18 0.00 68 1015.2
20260831115247 17 294 12.9 22.5 0.00 0.18 0.00 69 1015.2
20260831114746 17 308 11.3 20.9 0.00 0.18 0.00 69 1015.2
20260831114246 17 293 12.9 24.1 0.00 0.18 0.00 70 1015.1
20260831113746 17 291 11.3 20.9 0.00 0.18 0.00 69 1015.0
20260831113247 17 289 6.4 19.3 0.00 0.18 0.00 71 1015.0
20260831112748 17 285 8.0 16.1 0.00 0.18 0.00 68 1015.0
20260831112246 17 287 9.7 22.5 0.00 0.18 0.00 67 1014.8
20260831111747 17 293 9.7 19.3 0.00 0.18 0.00 67 1014.7
20260831111247 17 291 9.7 22.5 0.00 0.18 0.00 66 1014.8
20260831110747 17 284 8.0 12.9 0.00 0.18 0.00 67 1014.7
20260831110247 17 313 11.3 22.5 0.00 0.18 0.00 67 1014.6
20260831105747 16 296 11.3 19.3 0.00 0.18 0.00 68 1014.7
20260831105247 17 302 11.3 24.1 0.00 0.18 0.00 69 1014.6
20260831104747 17 288 9.7 22.5 0.00 0.18 0.00 69 1014.5
20260831104247 16 305 14.5 24.1 0.00 0.18 0.00 69 1014.4
20260831103747 16 289 16.1 25.7 0.00 0.18 0.00 69 1014.2
20260831103248 17 285 12.9 20.9 0.00 0.18 0.00 69 1014.3
20260831102747 17 295 11.3 22.5 0.00 0.18 0.00 71 1014.3
20260831102249 17 315 16.1 25.7 0.00 0.18 0.00 71 1014.2
20260831101748 16 307 11.3 20.9 0.00 0.18 0.00 73 1014.0
20260831101247 16 293 9.7 22.5 0.00 0.18 0.00 73 1014.1
20260831100748 16 295 9.7 20.9 0.00 0.23 0.00 73 1014.1
20260831100249 16 315 8.0 16.1 0.00 0.23 0.00 74 1014.1
20260831095748 16 305 12.9 22.5 0.00 0.25 0.00 73 1014.1
20260831095248 16 298 12.9 24.1 0.00 0.33 0.00 73 1013.9
20260831094747 16 310 11.3 19.3 0.00 0.33 0.00 74 1013.9
20260831093747 16 287 8.0 19.3 0.00 0.33 0.00 76 1013.8
20260831093249 16 289 9.7 19.3 0.00 0.33 0.00 77 1013.8
20260831092248 16 306 9.7 16.1 0.00 0.36 0.00 78 1013.8
20260831091748 16 293 4.8 16.1 0.00 0.36 0.00 79 1013.8
20260831091249 16 298 8.0 12.9 0.00 0.36 0.00 80 1013.7
20260831090748 16 299 9.7 12.9 0.00 0.38 0.00 80 1013.7
20260831090248 15 279 9.7 14.5 0.00 0.38 0.00 80 1013.6
20260831085249 15 311 9.7 22.5 0.00 0.38 0.00 81 1013.4
20260831084748 15 296 11.3 20.9 0.00 0.38 0.00 82 1013.3
20260831084248 15 291 11.3 16.1 0.00 0.38 0.00 82 1013.1
20260831083748 15 297 9.7 20.9 0.00 0.41 0.00 83 1013.0
20260831083248 15 304 11.3 22.5 0.00 0.41 0.00 82 1012.9
20260831082748 15 306 12.9 25.7 0.00 0.41 0.00 83 1012.9
20260831082249 15 292 11.3 20.9 0.00 0.41 0.00 82 1012.9
20260831081749 15 301 8.0 16.1 0.00 0.41 0.00 83 1012.9
20260831080749 15 280 9.7 19.3 0.00 0.41 0.00 83 1012.8
20260831080249 15 276 8.0 16.1 0.00 0.43 0.00 83 1012.7